Regional Weather Roundup
Issued by NWS State College, PA

Current Version | Previous Version | Text Only | Print | Product List | Glossary On
Versions: 1 2 3 4 5 6 7 8 9 10 11 12 13 14 15 16 17 18 19 20 21 22 23 24 25 26 27 28 29 30 31 32 33 34 35 36 37 38 39 40 41 42 43 44 45 46 47 48 49 50
000
ASUS41 KCTP 010310
RWRCTP

REGIONAL WEATHER ROUNDUP
NATIONAL WEATHER SERVICE STATE COLLEGE PA
1100 PM EDT FRI JUL 31 2015

Note: "fair" indicates few or no clouds below 12,000 feet with no
significant weather and/or obstructions to visibility.

* = STATION THAT DOES NOT REPORT PRECIPITATION /E.G. RAIN...SNOW...ETC/
    THUNDER OR FOG.

PAZ002>004-007>009-013>016-020>023-029>032-010400-
WESTERN PENNSYLVANIA

CITY           SKY/WX    TMP DP  RH WIND       PRES   REMARKS
ERIE           CLEAR     70  61  73 S6        29.83S
MEADVILLE      MOCLDY    67  62  84 SW6       29.89R
FRANKLIN*      CLOUDY    70  54  56 SW8       29.90S
NEW CASTLE     MOCLDY    73  62  68 CALM      29.90R
BEAVER COUNTY  NOT AVBL
BUTLER*        CLOUDY    72  57  60 SW6       29.92S
PITTSBURGH INT MOCLDY    76  56  49 SW7       29.91S
PITTSBURGH     MOCLDY    74  57  55 SW9       29.91S
INDIANA*       CLEAR     68  61  77 SW5       29.95S
LATROBE        NOT AVBL
WASHINGTON CO* NOT AVBL
$$

PAZ004>006-010>012-017>019-024>028-033>037-041-042-045-046-049>053-010400-
CENTRAL PENNSYLVANIA

CITY           SKY/WX    TMP DP  RH WIND       PRES   REMARKS
BRADFORD       CLOUDY    68  57  68 CALM      29.90S
DUBOIS         CLEAR     68  58  70 SW5       29.90S
CLEARFIELD     CLEAR     68  58  70 S6        29.91R
JOHNSTOWN      CLEAR     68  56  65 SW7       29.96S
ALTOONA        CLEAR     72  58  61 SW6       29.93S
STATE COLLEGE  CLEAR     71  60  68 W7        29.90S
WILLIAMSPORT   CLEAR     71  62  73 CALM      29.84R
SELINSGROVE    CLEAR     66  64  93 CALM      29.86R
FT INDIANTOWN  CLEAR     68  63  84 E2        29.87R
CAPITAL CITY   CLEAR     75  59  57 W5        29.86S
HARRISBURG     PTCLDY    78  60  53 N5        29.85S
YORK           CLEAR     67  63  87 CALM      29.88S
$$

PAZ038>040-043-044-047-048-054-055-060>062-067>071-010400-
EASTERN PENNSYLVANIA

CITY           SKY/WX    TMP DP  RH WIND       PRES   REMARKS
SCRANTON       CLEAR     71  59  65 S3        29.86R
MOUNT POCONO   CLEAR     65  58  78 W5        29.92R
ALLENTOWN      CLEAR     70  61  73 SW5       29.85S
QUAKERTOWN*    CLEAR     66  63  88 CALM      29.88S
READING        CLEAR     73  63  70 S3        29.85S
LANCASTER      CLEAR     75  62  64 SW3       29.87R
COATESVILLE    CLEAR     73  63  68 W5        29.90R
POTTSTOWN      CLEAR     70  64  81 CALM      29.88R
BLUE BELL      NOT AVBL
DOYLESTOWN     CLEAR     69  60  73 CALM      29.86R
WILLOW GROVE   NOT AVBL
NORTH PHILA    CLEAR     77  57  50 CALM      29.87R
PHILADELPHIA   CLEAR     79  62  56 CALM      29.87R
$$



USA.gov is the U.S. government's official web portal to all federal, state and local government web resources and services.